TimeEST,TemperatureF,Dew PointF,Humidity,Sea Level PressureIn,VisibilityMPH,Wind Direction,Wind SpeedMPH,Gust SpeedMPH,PrecipitationIn,Events,Conditions,WindDirDegrees,DateUTC
12:53 AM,12.0,-0.9,56,30.29,10.0,Calm,Calm,-,N/A,,Overcast,0,2013-01-23 05:53:00
1:53 AM,10.9,-0.9,59,30.29,10.0,Calm,Calm,-,N/A,,Clear,0,2013-01-23 06:53:00
2:53 AM,12.0,-2.0,53,30.30,10.0,SSW,4.6,-,N/A,,Mostly Cloudy,210,2013-01-23 07:53:00
3:53 AM,10.9,-2.0,56,30.29,10.0,Variable,3.5,-,N/A,,Mostly Cloudy,0,2013-01-23 08:53:00
4:53 AM,10.9,-0.9,59,30.29,10.0,SW,4.6,-,N/A,,Clear,230,2013-01-23 09:53:00
5:53 AM,10.9,-2.0,56,30.30,10.0,WSW,4.6,-,N/A,,Clear,240,2013-01-23 10:53:00
6:53 AM,10.9,-2.0,56,30.32,10.0,Calm,Calm,-,N/A,,Clear,0,2013-01-23 11:53:00
7:53 AM,10.0,-2.9,56,30.33,10.0,West,5.8,-,N/A,,Clear,260,2013-01-23 12:53:00
8:53 AM,10.9,-4.0,51,30.34,10.0,Variable,5.8,-,N/A,,Clear,0,2013-01-23 13:53:00
10:53 AM,14.0,-4.0,45,30.35,10.0,WNW,10.4,18.4,N/A,,Mostly Cloudy,290,2013-01-23 15:53:00
12:53 PM,18.0,-2.9,40,30.26,10.0,WSW,8.1,17.3,N/A,,Partly Cloudy,250,2013-01-23 17:53:00
1:53 PM,19.9,-2.9,37,30.25,10.0,Variable,5.8,-,N/A,,Overcast,0,2013-01-23 18:53:00
2:53 PM,21.0,-2.9,35,30.22,10.0,West,8.1,-,N/A,,Mostly Cloudy,280,2013-01-23 19:53:00
4:53 PM,19.9,-4.0,35,30.22,10.0,Variable,6.9,-,N/A,,Overcast,0,2013-01-23 21:53:00
5:53 PM,19.9,-4.0,35,30.22,10.0,Calm,Calm,-,N/A,,Overcast,0,2013-01-23 22:53:00
6:53 PM,19.9,-2.9,37,30.21,10.0,Calm,Calm,-,N/A,,Overcast,0,2013-01-23 23:53:00
7:53 PM,19.0,-2.0,40,30.21,10.0,Calm,Calm,-,N/A,,Overcast,0,2013-01-24 00:53:00
8:53 PM,19.0,-2.9,38,30.19,10.0,Calm,Calm,-,N/A,,Overcast,0,2013-01-24 01:53:00
9:53 PM,19.0,-0.0,43,30.19,10.0,Calm,Calm,-,N/A,,Overcast,0,2013-01-24 02:53:00
10:53 PM,19.0,-0.0,43,30.18,10.0,Calm,Calm,-,N/A,,Overcast,0,2013-01-24 03:53:00
11:53 PM,17.1,1.9,52,30.17,10.0,ENE,4.6,-,N/A,,Overcast,60,2013-01-24 04:53:00